Time,TemperatureF,DewpointF,PressureIn,WindDirection,WindDirectionDegrees,WindSpeedMPH,WindSpeedGustMPH,Humidity,HourlyPrecipIn,Conditions,Clouds,dailyrainin,SoftwareType,DateUTC
2018-01-19 00:00:00,25.4,16.6,30.27,SSW,211,7.0,7.0,69,0.00,,,0.01,Wunderground v.1.15,2018-01-19 05:00:00,
2018-01-19 00:05:00,25.4,16.6,30.27,SSW,192,1.0,7.0,69,0.00,,,0.00,Wunderground v.1.15,2018-01-19 05:05:00,
2018-01-19 00:10:00,25.3,16.5,30.26,SW,214,2.0,4.0,69,0.00,,,0.00,Wunderground v.1.15,2018-01-19 05:10:00,
2018-01-19 00:16:00,25.2,16.5,30.26,SSE,152,2.0,7.0,69,0.00,,,0.00,Wunderground v.1.15,2018-01-19 05:16:00,
2018-01-19 00:21:00,25.2,16.5,30.26,WSW,238,0.0,6.0,69,0.00,,,0.00,Wunderground v.1.15,2018-01-19 05:21:00,
2018-01-19 00:27:00,25.3,16.5,30.26,SW,227,4.0,7.0,69,0.00,,,0.00,Wunderground v.1.15,2018-01-19 05:27:00,
2018-01-19 00:32:00,25.3,16.5,30.26,SW,234,2.0,16.0,69,0.00,,,0.00,Wunderground v.1.15,2018-01-19 05:32:00,
2018-01-19 00:38:00,25.4,16.6,30.26,South,173,4.0,16.0,69,0.00,,,0.00,Wunderground v.1.15,2018-01-19 05:38:00,
2018-01-19 00:43:00,25.3,16.5,30.25,SW,222,6.0,8.0,69,0.00,,,0.00,Wunderground v.1.15,2018-01-19 05:43:00,
2018-01-19 00:49:00,25.4,16.6,30.26,SSW,198,6.0,8.0,69,0.00,,,0.00,Wunderground v.1.15,2018-01-19 05:49:00,
2018-01-19 00:55:00,25.4,16.3,30.25,WSW,250,4.0,8.0,68,0.00,,,0.00,Wunderground v.1.15,2018-01-19 05:55:00,
2018-01-19 01:00:00,25.4,16.3,30.25,SSW,208,1.0,4.0,68,0.00,,,0.00,Wunderground v.1.15,2018-01-19 06:00:00,
2018-01-19 01:05:00,25.2,16.5,30.25,SE,146,5.0,5.0,69,0.00,,,0.00,Wunderground v.1.15,2018-01-19 06:05:00,
2018-01-19 01:11:00,25.3,16.5,30.25,SE,130,4.0,11.0,69,0.00,,,0.00,Wunderground v.1.15,2018-01-19 06:11:00,
2018-01-19 01:17:00,25.2,16.1,30.25,West,262,4.0,11.0,68,0.00,,,0.00,Wunderground v.1.15,2018-01-19 06:17:00,
2018-01-19 01:22:00,25.2,16.5,30.25,NW,312,0.0,4.0,69,0.00,,,0.00,Wunderground v.1.15,2018-01-19 06:22:00,
2018-01-19 01:28:00,25.2,16.5,30.25,SSW,194,5.0,8.0,69,0.00,,,0.00,Wunderground v.1.15,2018-01-19 06:28:00,
2018-01-19 01:33:00,25.2,16.1,30.24,SW,226,0.0,4.0,68,0.00,,,0.00,Wunderground v.1.15,2018-01-19 06:33:00,
2018-01-19 01:39:00,25.1,16.4,30.24,WSW,244,2.0,12.0,69,0.00,,,0.00,Wunderground v.1.15,2018-01-19 06:39:00,
2018-01-19 01:45:00,25.1,16.4,30.24,WSW,257,2.0,6.0,69,0.00,,,0.00,Wunderground v.1.15,2018-01-19 06:45:00,
2018-01-19 01:50:00,25.0,16.3,30.24,SE,146,1.0,3.0,69,0.00,,,0.00,Wunderground v.1.15,2018-01-19 06:50:00,
2018-01-19 01:56:00,25.1,16.4,30.24,SSW,194,7.0,13.0,69,0.00,,,0.00,Wunderground v.1.15,2018-01-19 06:56:00,
2018-01-19 02:01:00,25.0,15.9,30.24,SSE,157,2.0,5.0,68,0.00,,,0.00,Wunderground v.1.15,2018-01-19 07:01:00,
2018-01-19 02:06:00,24.9,16.2,30.24,SSE,159,1.0,9.0,69,0.00,,,0.00,Wunderground v.1.15,2018-01-19 07:06:00,
2018-01-19 02:11:00,24.9,16.2,30.24,WSW,243,1.0,7.0,69,0.00,,,0.00,Wunderground v.1.15,2018-01-19 07:11:00,
2018-01-19 02:16:00,24.9,16.2,30.25,SE,146,1.0,7.0,69,0.00,,,0.00,Wunderground v.1.15,2018-01-19 07:16:00,
2018-01-19 02:21:00,24.8,16.1,30.25,WNW,295,2.0,2.0,69,0.00,,,0.00,Wunderground v.1.15,2018-01-19 07:21:00,
2018-01-19 02:26:00,24.9,16.2,30.25,SW,236,4.0,9.0,69,0.00,,,0.00,Wunderground v.1.15,2018-01-19 07:26:00,
2018-01-19 02:31:00,24.9,16.2,30.25,SSW,213,1.0,6.0,69,0.00,,,0.00,Wunderground v.1.15,2018-01-19 07:31:00,
2018-01-19 02:36:00,24.8,16.1,30.24,SW,236,5.0,8.0,69,0.00,,,0.00,Wunderground v.1.15,2018-01-19 07:36:00,
2018-01-19 02:41:00,24.8,16.1,30.24,WSW,249,4.0,7.0,69,0.00,,,0.00,Wunderground v.1.15,2018-01-19 07:41:00,
2018-01-19 02:46:00,24.7,16.0,30.24,SW,216,5.0,9.0,69,0.00,,,0.00,Wunderground v.1.15,2018-01-19 07:46:00,
2018-01-19 02:51:00,24.7,16.0,30.24,West,259,0.0,10.0,69,0.00,,,0.00,Wunderground v.1.15,2018-01-19 07:51:00,
2018-01-19 02:56:00,24.6,15.9,30.24,WSW,249,1.0,10.0,69,0.00,,,0.00,Wunderground v.1.15,2018-01-19 07:56:00,
2018-01-19 03:01:00,24.6,16.2,30.24,West,272,0.0,5.0,70,0.00,,,0.00,Wunderground v.1.15,2018-01-19 08:01:00,
2018-01-19 03:06:00,24.6,16.2,30.25,WSW,246,3.0,7.0,70,0.00,,,0.00,Wunderground v.1.15,2018-01-19 08:06:00,
2018-01-19 03:11:00,24.5,16.1,30.25,WSW,256,9.0,10.0,70,0.00,,,0.00,Wunderground v.1.15,2018-01-19 08:11:00,
2018-01-19 03:16:00,24.5,16.1,30.25,SSW,209,3.0,10.0,70,0.00,,,0.00,Wunderground v.1.15,2018-01-19 08:16:00,
2018-01-19 03:21:00,24.5,16.1,30.25,WSW,244,1.0,9.0,70,0.00,,,0.00,Wunderground v.1.15,2018-01-19 08:21:00,
2018-01-19 03:26:00,24.4,16.0,30.25,SW,235,4.0,9.0,70,0.00,,,0.00,Wunderground v.1.15,2018-01-19 08:26:00,
2018-01-19 03:31:00,24.3,15.9,30.25,WSW,250,5.0,5.0,70,0.00,,,0.00,Wunderground v.1.15,2018-01-19 08:31:00,
2018-01-19 03:36:00,24.2,15.8,30.25,SSW,207,2.0,10.0,70,0.00,,,0.00,Wunderground v.1.15,2018-01-19 08:36:00,
2018-01-19 03:41:00,24.1,16.1,30.25,SW,221,5.0,7.0,71,0.00,,,0.00,Wunderground v.1.15,2018-01-19 08:41:00,
2018-01-19 03:47:00,24.1,16.1,30.25,SW,221,3.0,8.0,71,0.00,,,0.00,Wunderground v.1.15,2018-01-19 08:47:00,
2018-01-19 03:52:00,24.0,16.0,30.25,West,260,5.0,5.0,71,0.00,,,0.00,Wunderground v.1.15,2018-01-19 08:52:00,
2018-01-19 03:57:00,24.0,16.0,30.25,WSW,240,1.0,8.0,71,0.00,,,0.00,Wunderground v.1.15,2018-01-19 08:57:00,
2018-01-19 04:02:00,23.9,15.9,30.25,SW,235,5.0,7.0,71,0.00,,,0.00,Wunderground v.1.15,2018-01-19 09:02:00,
2018-01-19 04:07:00,23.9,15.9,30.24,SSW,202,4.0,7.0,71,0.00,,,0.00,Wunderground v.1.15,2018-01-19 09:07:00,
2018-01-19 04:12:00,23.9,15.9,30.25,South,175,1.0,5.0,71,0.00,,,0.00,Wunderground v.1.15,2018-01-19 09:12:00,
2018-01-19 04:17:00,23.9,15.9,30.25,WSW,243,2.0,7.0,71,0.00,,,0.00,Wunderground v.1.15,2018-01-19 09:17:00,
2018-01-19 04:22:00,23.8,15.8,30.25,SSE,166,0.0,6.0,71,0.00,,,0.00,Wunderground v.1.15,2018-01-19 09:22:00,
2018-01-19 04:27:00,23.8,15.8,30.25,SW,236,1.0,8.0,71,0.00,,,0.00,Wunderground v.1.15,2018-01-19 09:27:00,
2018-01-19 04:32:00,23.8,15.8,30.25,WSW,247,1.0,5.0,71,0.00,,,0.00,Wunderground v.1.15,2018-01-19 09:32:00,
2018-01-19 04:37:00,23.8,15.8,30.25,West,262,2.0,5.0,71,0.00,,,0.00,Wunderground v.1.15,2018-01-19 09:37:00,
2018-01-19 04:42:00,23.8,15.8,30.25,SE,132,5.0,7.0,71,0.00,,,0.00,Wunderground v.1.15,2018-01-19 09:42:00,
2018-01-19 04:47:00,23.8,15.8,30.25,SW,227,4.0,7.0,71,0.00,,,0.00,Wunderground v.1.15,2018-01-19 09:47:00,
2018-01-19 04:52:00,23.8,15.8,30.24,SW,223,0.0,5.0,71,0.00,,,0.00,Wunderground v.1.15,2018-01-19 09:52:00,
2018-01-19 04:57:00,23.8,15.8,30.24,WSW,239,4.0,6.0,71,0.00,,,0.00,Wunderground v.1.15,2018-01-19 09:57:00,
2018-01-19 05:02:00,23.8,15.8,30.24,South,187,3.0,8.0,71,0.00,,,0.00,Wunderground v.1.15,2018-01-19 10:02:00,
2018-01-19 05:08:00,23.7,15.7,30.24,ESE,109,3.0,8.0,71,0.00,,,0.00,Wunderground v.1.15,2018-01-19 10:08:00,
2018-01-19 05:13:00,23.7,15.7,30.24,SW,221,1.0,8.0,71,0.00,,,0.00,Wunderground v.1.15,2018-01-19 10:13:00,
2018-01-19 05:18:00,23.7,16.0,30.24,WSW,244,9.0,10.0,72,0.00,,,0.00,Wunderground v.1.15,2018-01-19 10:18:00,
2018-01-19 05:23:00,23.9,15.9,30.24,SW,223,3.0,6.0,71,0.00,,,0.00,Wunderground v.1.15,2018-01-19 10:23:00,
2018-01-19 05:28:00,23.8,15.8,30.25,West,270,2.0,7.0,71,0.00,,,0.00,Wunderground v.1.15,2018-01-19 10:28:00,
2018-01-19 05:33:00,23.9,15.9,30.25,SSW,205,1.0,7.0,71,0.00,,,0.00,Wunderground v.1.15,2018-01-19 10:33:00,
2018-01-19 05:38:00,23.9,15.9,30.25,SW,227,5.0,9.0,71,0.00,,,0.00,Wunderground v.1.15,2018-01-19 10:38:00,
2018-01-19 05:43:00,23.9,15.9,30.25,SSW,192,3.0,8.0,71,0.00,,,0.00,Wunderground v.1.15,2018-01-19 10:43:00,
2018-01-19 05:48:00,23.9,15.9,30.25,SW,219,4.0,8.0,71,0.00,,,0.00,Wunderground v.1.15,2018-01-19 10:48:00,
2018-01-19 05:53:00,23.8,15.8,30.25,SSW,203,1.0,3.0,71,0.00,,,0.00,Wunderground v.1.15,2018-01-19 10:53:00,
2018-01-19 05:58:00,23.6,15.6,30.25,South,191,5.0,6.0,71,0.00,,,0.00,Wunderground v.1.15,2018-01-19 10:58:00,
2018-01-19 06:03:00,23.6,15.6,30.25,SSW,207,1.0,6.0,71,0.00,,,0.00,Wunderground v.1.15,2018-01-19 11:03:00,
2018-01-19 06:08:00,23.6,15.6,30.25,SSW,194,5.0,6.0,71,0.00,,,0.00,Wunderground v.1.15,2018-01-19 11:08:00,
2018-01-19 06:13:00,23.5,15.5,30.24,South,186,5.0,5.0,71,0.00,,,0.00,Wunderground v.1.15,2018-01-19 11:13:00,
2018-01-19 06:18:00,23.5,15.8,30.24,SW,234,2.0,6.0,72,0.00,,,0.00,Wunderground v.1.15,2018-01-19 11:18:00,
2018-01-19 06:23:00,23.5,15.8,30.24,SSE,163,4.0,5.0,72,0.00,,,0.00,Wunderground v.1.15,2018-01-19 11:23:00,
2018-01-19 06:28:00,23.3,15.6,30.24,SW,223,1.0,5.0,72,0.00,,,0.00,Wunderground v.1.15,2018-01-19 11:28:00,
2018-01-19 06:33:00,23.3,15.6,30.24,SSW,211,0.0,5.0,72,0.00,,,0.00,Wunderground v.1.15,2018-01-19 11:33:00,
2018-01-19 06:38:00,23.4,15.7,30.24,ESE,102,3.0,6.0,72,0.00,,,0.00,Wunderground v.1.15,2018-01-19 11:38:00,
2018-01-19 06:43:00,23.3,15.6,30.23,SSE,152,4.0,6.0,72,0.00,,,0.00,Wunderground v.1.15,2018-01-19 11:43:00,
2018-01-19 06:48:00,23.2,15.5,30.23,SSW,204,2.0,6.0,72,0.00,,,0.00,Wunderground v.1.15,2018-01-19 11:48:00,
2018-01-19 06:53:00,23.1,15.4,30.23,South,182,3.0,6.0,72,0.00,,,0.00,Wunderground v.1.15,2018-01-19 11:53:00,
2018-01-19 06:58:00,23.0,15.3,30.23,WSW,254,1.0,6.0,72,0.00,,,0.00,Wunderground v.1.15,2018-01-19 11:58:00,
2018-01-19 07:04:00,22.9,15.2,30.24,ESE,123,7.0,7.0,72,0.00,,,0.00,Wunderground v.1.15,2018-01-19 12:04:00,
2018-01-19 07:09:00,22.9,15.5,30.23,SW,225,4.0,7.0,73,0.00,,,0.00,Wunderground v.1.15,2018-01-19 12:09:00,
2018-01-19 07:14:00,22.9,15.2,30.24,SSE,153,1.0,7.0,72,0.00,,,0.00,Wunderground v.1.15,2018-01-19 12:14:00,
2018-01-19 07:19:00,22.9,15.2,30.24,ESE,121,0.0,7.0,72,0.00,,,0.00,Wunderground v.1.15,2018-01-19 12:19:00,
2018-01-19 07:24:00,22.7,15.3,30.23,SE,136,0.0,5.0,73,0.00,,,0.00,Wunderground v.1.15,2018-01-19 12:24:00,
2018-01-19 07:29:00,22.8,15.4,30.24,ESE,111,0.0,6.0,73,0.00,,,0.00,Wunderground v.1.15,2018-01-19 12:29:00,
2018-01-19 07:34:00,22.7,15.3,30.24,South,186,0.0,2.0,73,0.00,,,0.00,Wunderground v.1.15,2018-01-19 12:34:00,
2018-01-19 07:39:00,22.5,15.1,30.24,South,179,1.0,2.0,73,0.00,,,0.00,Wunderground v.1.15,2018-01-19 12:39:00,
2018-01-19 07:44:00,22.4,15.1,30.24,South,169,3.0,3.0,73,0.00,,,0.00,Wunderground v.1.15,2018-01-19 12:44:00,
2018-01-19 07:49:00,22.5,15.5,30.24,South,181,2.0,5.0,74,0.00,,,0.00,Wunderground v.1.15,2018-01-19 12:49:00,
2018-01-19 07:54:00,22.5,15.5,30.24,SSW,196,2.0,4.0,74,0.00,,,0.00,Wunderground v.1.15,2018-01-19 12:54:00,
2018-01-19 07:59:00,22.6,15.2,30.23,SE,144,1.0,6.0,73,0.00,,,0.00,Wunderground v.1.15,2018-01-19 12:59:00,
2018-01-19 08:04:00,22.6,15.2,30.23,ESE,119,2.0,4.0,73,0.00,,,0.00,Wunderground v.1.15,2018-01-19 13:04:00,
2018-01-19 08:10:00,22.7,15.3,30.24,South,188,2.0,2.0,73,0.00,,,0.00,Wunderground v.1.15,2018-01-19 13:10:00,
2018-01-19 08:15:00,22.7,15.3,30.24,SSW,209,2.0,9.0,73,0.00,,,0.00,Wunderground v.1.15,2018-01-19 13:15:00,
2018-01-19 08:20:00,22.7,15.3,30.24,SSE,167,1.0,2.0,73,0.00,,,0.00,Wunderground v.1.15,2018-01-19 13:20:00,
2018-01-19 08:25:00,22.8,15.4,30.23,SE,138,3.0,7.0,73,0.00,,,0.00,Wunderground v.1.15,2018-01-19 13:25:00,
2018-01-19 08:30:00,22.9,15.5,30.23,SW,225,0.0,2.0,73,0.00,,,0.00,Wunderground v.1.15,2018-01-19 13:30:00,
2018-01-19 08:35:00,23.0,15.6,30.24,WSW,250,2.0,6.0,73,0.00,,,0.00,Wunderground v.1.15,2018-01-19 13:35:00,
2018-01-19 08:40:00,23.2,15.5,30.24,SSW,202,2.0,2.0,72,0.00,,,0.00,Wunderground v.1.15,2018-01-19 13:40:00,
2018-01-19 08:45:00,23.3,15.6,30.24,SW,222,3.0,4.0,72,0.00,,,0.00,Wunderground v.1.15,2018-01-19 13:45:00,
2018-01-19 08:50:00,23.5,15.8,30.24,WSW,252,1.0,2.0,72,0.00,,,0.00,Wunderground v.1.15,2018-01-19 13:50:00,
2018-01-19 08:55:00,23.8,16.1,30.24,South,169,4.0,7.0,72,0.00,,,0.00,Wunderground v.1.15,2018-01-19 13:55:00,
2018-01-19 09:00:00,24.1,16.4,30.24,South,183,5.0,5.0,72,0.00,,,0.00,Wunderground v.1.15,2018-01-19 14:00:00,
2018-01-19 09:05:00,24.4,16.3,30.24,SSE,168,0.0,7.0,71,0.00,,,0.00,Wunderground v.1.15,2018-01-19 14:05:00,
2018-01-19 09:10:00,24.7,16.3,30.24,SSW,198,5.0,7.0,70,0.00,,,0.00,Wunderground v.1.15,2018-01-19 14:10:00,
2018-01-19 09:15:00,25.0,16.6,30.24,SW,236,6.0,7.0,70,0.00,,,0.00,Wunderground v.1.15,2018-01-19 14:15:00,
2018-01-19 09:20:00,25.2,16.8,30.24,SW,231,2.0,4.0,70,0.00,,,0.00,Wunderground v.1.15,2018-01-19 14:20:00,
2018-01-19 09:25:00,25.5,16.7,30.24,SSW,212,1.0,7.0,69,0.00,,,0.00,Wunderground v.1.15,2018-01-19 14:25:00,
2018-01-19 09:30:00,26.0,17.2,30.24,South,178,4.0,7.0,69,0.00,,,0.00,Wunderground v.1.15,2018-01-19 14:30:00,
2018-01-19 09:35:00,26.2,17.1,30.24,SSW,203,6.0,10.0,68,0.00,,,0.00,Wunderground v.1.15,2018-01-19 14:35:00,
2018-01-19 09:40:00,26.5,17.4,30.23,SE,128,1.0,4.0,68,0.00,,,0.00,Wunderground v.1.15,2018-01-19 14:40:00,
2018-01-19 09:45:00,26.9,17.4,30.23,WSW,238,2.0,9.0,67,0.00,,,0.00,Wunderground v.1.15,2018-01-19 14:45:00,
2018-01-19 09:50:00,27.1,17.2,30.23,South,180,4.0,6.0,66,0.00,,,0.00,Wunderground v.1.15,2018-01-19 14:50:00,
2018-01-19 09:55:00,27.4,17.5,30.23,SW,234,8.0,9.0,66,0.00,,,0.00,Wunderground v.1.15,2018-01-19 14:55:00,
2018-01-19 10:00:00,27.6,17.4,30.24,South,184,6.0,6.0,65,0.00,,,0.00,Wunderground v.1.15,2018-01-19 15:00:00,
2018-01-19 10:05:00,28.0,17.7,30.24,South,184,2.0,9.0,65,0.00,,,0.00,Wunderground v.1.15,2018-01-19 15:05:00,
2018-01-19 10:10:00,28.1,17.8,30.23,South,176,3.0,6.0,65,0.00,,,0.00,Wunderground v.1.15,2018-01-19 15:10:00,
2018-01-19 10:15:00,28.4,17.8,30.23,SW,216,0.0,7.0,64,0.00,,,0.00,Wunderground v.1.15,2018-01-19 15:15:00,
2018-01-19 10:20:00,28.7,18.1,30.24,SW,229,6.0,7.0,64,0.00,,,0.00,Wunderground v.1.15,2018-01-19 15:20:00,
2018-01-19 10:25:00,28.9,18.2,30.23,South,182,4.0,9.0,64,0.00,,,0.00,Wunderground v.1.15,2018-01-19 15:25:00,
2018-01-19 10:30:00,29.1,18.1,30.23,South,188,4.0,5.0,63,0.00,,,0.00,Wunderground v.1.15,2018-01-19 15:30:00,
2018-01-19 10:35:00,29.5,18.4,30.23,SSW,202,2.0,10.0,63,0.00,,,0.00,Wunderground v.1.15,2018-01-19 15:35:00,
2018-01-19 10:40:00,29.6,18.5,30.23,SSW,193,5.0,12.0,63,0.00,,,0.00,Wunderground v.1.15,2018-01-19 15:40:00,
2018-01-19 10:45:00,29.7,18.6,30.23,WSW,244,4.0,12.0,63,0.00,,,0.00,Wunderground v.1.15,2018-01-19 15:45:00,
2018-01-19 10:50:00,29.9,18.5,30.23,SSE,157,5.0,6.0,62,0.00,,,0.00,Wunderground v.1.15,2018-01-19 15:50:00,
2018-01-19 10:55:00,30.5,19.0,30.22,SW,225,7.0,10.0,62,0.00,,,0.00,Wunderground v.1.15,2018-01-19 15:55:00,
2018-01-19 11:01:00,30.5,18.6,30.22,SW,223,0.0,5.0,61,0.00,,,0.00,Wunderground v.1.15,2018-01-19 16:01:00,
2018-01-19 11:06:00,30.7,18.8,30.22,West,275,4.0,12.0,61,0.00,,,0.00,Wunderground v.1.15,2018-01-19 16:06:00,
2018-01-19 11:11:00,31.0,19.1,30.22,West,279,8.0,8.0,61,0.00,,,0.00,Wunderground v.1.15,2018-01-19 16:11:00,
2018-01-19 11:16:00,31.3,19.4,30.22,SE,128,4.0,10.0,61,0.00,,,0.00,Wunderground v.1.15,2018-01-19 16:16:00,
2018-01-19 11:21:00,31.8,19.9,30.22,SSW,192,4.0,8.0,61,0.00,,,0.00,Wunderground v.1.15,2018-01-19 16:21:00,
2018-01-19 11:26:00,32.1,19.4,30.22,SSW,195,7.0,10.0,59,0.00,,,0.00,Wunderground v.1.15,2018-01-19 16:26:00,
2018-01-19 11:31:00,31.8,19.1,30.21,SSE,154,5.0,11.0,59,0.00,,,0.00,Wunderground v.1.15,2018-01-19 16:31:00,
2018-01-19 11:36:00,32.3,19.6,30.21,WSW,251,3.0,13.0,59,0.00,,,0.00,Wunderground v.1.15,2018-01-19 16:36:00,
2018-01-19 11:41:00,32.4,19.7,30.21,SSE,154,5.0,15.0,59,0.00,,,0.00,Wunderground v.1.15,2018-01-19 16:41:00,
2018-01-19 11:46:00,32.6,19.8,30.20,SE,126,1.0,15.0,59,0.00,,,0.00,Wunderground v.1.15,2018-01-19 16:46:00,
2018-01-19 11:51:00,33.1,19.9,30.20,SSW,194,13.0,14.0,58,0.00,,,0.00,Wunderground v.1.15,2018-01-19 16:51:00,
2018-01-19 11:56:00,33.0,19.8,30.19,SSE,152,9.0,14.0,58,0.00,,,0.00,Wunderground v.1.15,2018-01-19 16:56:00,
2018-01-19 12:01:00,33.5,20.7,30.19,SW,215,5.0,8.0,59,0.00,,,0.00,Wunderground v.1.15,2018-01-19 17:01:00,
2018-01-19 12:06:00,33.8,20.2,30.19,SSE,166,3.0,10.0,57,0.00,,,0.00,Wunderground v.1.15,2018-01-19 17:06:00,
2018-01-19 12:11:00,34.4,20.7,30.18,SSW,198,7.0,8.0,57,0.00,,,0.00,Wunderground v.1.15,2018-01-19 17:11:00,
2018-01-19 12:16:00,34.6,20.9,30.18,South,169,3.0,11.0,57,0.00,,,0.00,Wunderground v.1.15,2018-01-19 17:16:00,
2018-01-19 12:21:00,34.5,20.4,30.18,SSW,213,8.0,10.0,56,0.00,,,0.00,Wunderground v.1.15,2018-01-19 17:21:00,
2018-01-19 12:26:00,34.6,20.9,30.18,WSW,237,2.0,11.0,57,0.00,,,0.00,Wunderground v.1.15,2018-01-19 17:26:00,
2018-01-19 12:31:00,35.2,21.1,30.18,West,272,4.0,7.0,56,0.00,,,0.00,Wunderground v.1.15,2018-01-19 17:31:00,
2018-01-19 12:36:00,35.3,20.7,30.18,WSW,243,3.0,16.0,55,0.00,,,0.00,Wunderground v.1.15,2018-01-19 17:36:00,
2018-01-19 12:41:00,35.5,21.3,30.18,South,180,5.0,8.0,56,0.00,,,0.00,Wunderground v.1.15,2018-01-19 17:41:00,
2018-01-19 12:46:00,35.7,21.1,30.17,SSW,192,4.0,13.0,55,0.00,,,0.00,Wunderground v.1.15,2018-01-19 17:46:00,
2018-01-19 12:51:00,35.9,21.3,30.17,SE,129,4.0,10.0,55,0.00,,,0.00,Wunderground v.1.15,2018-01-19 17:51:00,
2018-01-19 12:56:00,36.3,22.1,30.17,SW,228,5.0,10.0,56,0.00,,,0.00,Wunderground v.1.15,2018-01-19 17:56:00,
2018-01-19 13:01:00,36.6,21.5,30.16,SSE,162,1.0,7.0,54,0.00,,,0.01,Wunderground v.1.15,2018-01-19 18:01:00,
2018-01-19 13:06:00,36.6,21.5,30.16,South,190,8.0,15.0,54,0.00,,,0.01,Wunderground v.1.15,2018-01-19 18:06:00,
2018-01-19 13:11:00,36.8,21.7,30.16,South,181,4.0,7.0,54,0.00,,,0.01,Wunderground v.1.15,2018-01-19 18:11:00,
2018-01-19 13:16:00,37.0,21.4,30.16,SSW,197,6.0,14.0,53,0.00,,,0.01,Wunderground v.1.15,2018-01-19 18:16:00,
2018-01-19 13:21:00,37.3,22.2,30.16,SSW,202,4.0,7.0,54,0.00,,,0.01,Wunderground v.1.15,2018-01-19 18:21:00,
2018-01-19 13:27:00,37.8,22.6,30.16,SSW,211,8.0,9.0,54,0.00,,,0.01,Wunderground v.1.15,2018-01-19 18:27:00,
2018-01-19 13:32:00,38.1,22.5,30.15,WSW,254,5.0,12.0,53,0.00,,,0.01,Wunderground v.1.15,2018-01-19 18:32:00,
2018-01-19 13:37:00,38.0,22.4,30.15,NW,312,1.0,12.0,53,0.00,,,0.01,Wunderground v.1.15,2018-01-19 18:37:00,
2018-01-19 13:42:00,38.4,22.7,30.14,SSE,168,2.0,6.0,53,0.00,,,0.01,Wunderground v.1.15,2018-01-19 18:42:00,
2018-01-19 13:47:00,38.9,22.8,30.14,SSW,213,8.0,8.0,52,0.00,,,0.01,Wunderground v.1.15,2018-01-19 18:47:00,
2018-01-19 13:52:00,38.9,22.8,30.14,South,186,5.0,12.0,52,0.00,,,0.01,Wunderground v.1.15,2018-01-19 18:52:00,
2018-01-19 13:57:00,38.8,22.2,30.14,South,191,9.0,14.0,51,0.00,,,0.01,Wunderground v.1.15,2018-01-19 18:57:00,
2018-01-19 14:03:00,39.1,22.9,30.14,SE,146,7.0,10.0,52,0.00,,,0.01,Wunderground v.1.15,2018-01-19 19:03:00,
2018-01-19 14:08:00,39.3,22.7,30.14,SSW,209,7.0,15.0,51,0.00,,,0.01,Wunderground v.1.15,2018-01-19 19:08:00,
2018-01-19 14:13:00,39.5,22.8,30.13,WSW,248,6.0,9.0,51,0.00,,,0.01,Wunderground v.1.15,2018-01-19 19:13:00,
2018-01-19 14:18:00,39.7,23.0,30.13,South,175,8.0,15.0,51,0.00,,,0.01,Wunderground v.1.15,2018-01-19 19:18:00,
2018-01-19 14:23:00,39.9,23.2,30.13,WSW,250,3.0,7.0,51,0.00,,,0.02,Wunderground v.1.15,2018-01-19 19:23:00,
2018-01-19 14:28:00,40.4,23.2,30.12,SSW,206,3.0,12.0,50,0.00,,,0.02,Wunderground v.1.15,2018-01-19 19:28:00,
2018-01-19 14:34:00,40.9,23.2,30.12,SW,221,4.0,16.0,49,0.00,,,0.02,Wunderground v.1.15,2018-01-19 19:34:00,
2018-01-19 14:39:00,40.7,23.0,30.12,SSW,213,7.0,16.0,49,0.00,,,0.02,Wunderground v.1.15,2018-01-19 19:39:00,
2018-01-19 14:44:00,40.7,23.0,30.12,WSW,237,5.0,12.0,49,0.00,,,0.03,Wunderground v.1.15,2018-01-19 19:44:00,
2018-01-19 14:49:00,41.1,23.9,30.12,SW,234,9.0,12.0,50,0.00,,,0.03,Wunderground v.1.15,2018-01-19 19:49:00,
2018-01-19 14:54:00,41.3,23.1,30.11,SW,235,4.0,9.0,48,0.00,,,0.03,Wunderground v.1.15,2018-01-19 19:54:00,
2018-01-19 14:59:00,41.3,23.1,30.11,SW,223,6.0,10.0,48,0.00,,,0.03,Wunderground v.1.15,2018-01-19 19:59:00,
2018-01-19 15:04:00,41.4,23.6,30.11,SSW,195,9.0,10.0,49,0.00,,,0.03,Wunderground v.1.15,2018-01-19 20:04:00,
2018-01-19 15:09:00,41.8,23.5,30.11,South,189,6.0,11.0,48,0.00,,,0.03,Wunderground v.1.15,2018-01-19 20:09:00,
2018-01-19 15:14:00,41.8,24.0,30.11,SSW,210,7.0,9.0,49,0.00,,,0.03,Wunderground v.1.15,2018-01-19 20:14:00,
2018-01-19 15:20:00,41.8,24.0,30.11,SE,129,1.0,5.0,49,0.00,,,0.03,Wunderground v.1.15,2018-01-19 20:20:00,
2018-01-19 15:25:00,41.9,23.6,30.11,SSW,213,4.0,11.0,48,0.00,,,0.03,Wunderground v.1.15,2018-01-19 20:25:00,
2018-01-19 15:30:00,41.9,23.1,30.11,SSW,200,12.0,14.0,47,0.00,,,0.03,Wunderground v.1.15,2018-01-19 20:30:00,
2018-01-19 15:35:00,41.8,23.5,30.11,SSW,206,7.0,14.0,48,0.00,,,0.03,Wunderground v.1.15,2018-01-19 20:35:00,
2018-01-19 15:40:00,41.9,24.1,30.10,NW,321,1.0,8.0,49,0.00,,,0.03,Wunderground v.1.15,2018-01-19 20:40:00,
2018-01-19 15:45:00,42.1,23.8,30.11,SW,215,9.0,11.0,48,0.00,,,0.03,Wunderground v.1.15,2018-01-19 20:45:00,
2018-01-19 15:50:00,42.2,23.9,30.10,SSW,206,4.0,5.0,48,0.00,,,0.03,Wunderground v.1.15,2018-01-19 20:50:00,
2018-01-19 15:55:00,42.1,23.8,30.10,WSW,240,5.0,14.0,48,0.00,,,0.03,Wunderground v.1.15,2018-01-19 20:55:00,
2018-01-19 16:00:00,41.7,23.4,30.11,SSW,202,3.0,14.0,48,0.00,,,0.03,Wunderground v.1.15,2018-01-19 21:00:00,
2018-01-19 16:05:00,41.6,23.8,30.10,South,171,4.0,14.0,49,0.00,,,0.03,Wunderground v.1.15,2018-01-19 21:05:00,
2018-01-19 16:10:00,41.6,23.8,30.10,SW,227,8.0,8.0,49,0.00,,,0.03,Wunderground v.1.15,2018-01-19 21:10:00,
2018-01-19 16:15:00,41.5,23.2,30.11,SW,226,7.0,13.0,48,0.00,,,0.03,Wunderground v.1.15,2018-01-19 21:15:00,
2018-01-19 16:20:00,41.3,23.6,30.11,SW,219,6.0,7.0,49,0.00,,,0.03,Wunderground v.1.15,2018-01-19 21:20:00,
2018-01-19 16:25:00,41.3,24.0,30.10,SSW,200,6.0,12.0,50,0.00,,,0.03,Wunderground v.1.15,2018-01-19 21:25:00,
2018-01-19 16:30:00,41.3,23.6,30.10,SSE,150,8.0,11.0,49,0.00,,,0.03,Wunderground v.1.15,2018-01-19 21:30:00,
2018-01-19 16:35:00,41.2,23.9,30.11,SW,231,3.0,13.0,50,0.00,,,0.03,Wunderground v.1.15,2018-01-19 21:35:00,
2018-01-19 16:40:00,41.1,23.9,30.11,WNW,287,3.0,8.0,50,0.00,,,0.03,Wunderground v.1.15,2018-01-19 21:40:00,
2018-01-19 16:45:00,41.2,23.9,30.11,WSW,250,12.0,12.0,50,0.00,,,0.03,Wunderground v.1.15,2018-01-19 21:45:00,
2018-01-19 16:50:00,41.0,23.8,30.11,SSW,196,6.0,6.0,50,0.00,,,0.03,Wunderground v.1.15,2018-01-19 21:50:00,
2018-01-19 16:56:00,40.9,23.7,30.11,South,186,3.0,9.0,50,0.00,,,0.03,Wunderground v.1.15,2018-01-19 21:56:00,
2018-01-19 17:01:00,40.9,24.1,30.10,WSW,248,10.0,10.0,51,0.00,,,0.03,Wunderground v.1.15,2018-01-19 22:01:00,
2018-01-19 17:06:00,40.6,23.9,30.10,SSW,211,5.0,10.0,51,0.00,,,0.03,Wunderground v.1.15,2018-01-19 22:06:00,
2018-01-19 17:11:00,40.5,23.8,30.10,SSW,199,3.0,14.0,51,0.00,,,0.03,Wunderground v.1.15,2018-01-19 22:11:00,
2018-01-19 17:16:00,40.4,24.1,30.10,SW,217,8.0,14.0,52,0.00,,,0.03,Wunderground v.1.15,2018-01-19 22:16:00,
2018-01-19 17:21:00,40.3,24.1,30.10,WSW,243,3.0,6.0,52,0.00,,,0.03,Wunderground v.1.15,2018-01-19 22:21:00,
2018-01-19 17:26:00,40.2,24.0,30.10,South,182,6.0,9.0,52,0.00,,,0.03,Wunderground v.1.15,2018-01-19 22:26:00,
2018-01-19 17:31:00,40.0,23.8,30.10,SSW,193,8.0,10.0,52,0.00,,,0.03,Wunderground v.1.15,2018-01-19 22:31:00,
2018-01-19 17:36:00,39.8,24.0,30.10,SSW,203,7.0,10.0,53,0.00,,,0.03,Wunderground v.1.15,2018-01-19 22:36:00,
2018-01-19 17:41:00,39.8,24.0,30.10,South,173,9.0,11.0,53,0.00,,,0.03,Wunderground v.1.15,2018-01-19 22:41:00,
2018-01-19 17:46:00,39.7,24.0,30.10,SSW,209,3.0,12.0,53,0.00,,,0.03,Wunderground v.1.15,2018-01-19 22:46:00,
2018-01-19 17:51:00,39.6,23.9,30.10,SSE,168,3.0,5.0,53,0.00,,,0.03,Wunderground v.1.15,2018-01-19 22:51:00,
2018-01-19 17:56:00,39.3,24.0,30.10,SSW,209,3.0,8.0,54,0.00,,,0.03,Wunderground v.1.15,2018-01-19 22:56:00,
2018-01-19 17:57:00,39.3,24.0,30.10,SW,217,7.0,10.0,54,0.00,,,0.03,Wunderground v.1.15,2018-01-19 22:57:00,
2018-01-19 18:02:00,39.2,23.9,30.09,West,261,0.0,6.0,54,0.00,,,0.03,Wunderground v.1.15,2018-01-19 23:02:00,
2018-01-19 18:07:00,39.1,24.3,30.09,SSW,192,4.0,9.0,55,0.00,,,0.03,Wunderground v.1.15,2018-01-19 23:07:00,
2018-01-19 18:12:00,39.0,24.2,30.09,SSW,212,2.0,9.0,55,0.00,,,0.03,Wunderground v.1.15,2018-01-19 23:12:00,
2018-01-19 18:17:00,39.0,24.2,30.10,SSW,208,1.0,11.0,55,0.00,,,0.03,Wunderground v.1.15,2018-01-19 23:17:00,
2018-01-19 18:22:00,38.9,24.1,30.09,SW,215,3.0,6.0,55,0.00,,,0.03,Wunderground v.1.15,2018-01-19 23:22:00,
2018-01-19 18:28:00,38.8,24.4,30.09,SSW,213,6.0,7.0,56,0.00,,,0.03,Wunderground v.1.15,2018-01-19 23:28:00,
2018-01-19 18:33:00,38.8,24.4,30.09,SSW,209,1.0,7.0,56,0.00,,,0.03,Wunderground v.1.15,2018-01-19 23:33:00,
2018-01-19 18:38:00,38.8,24.4,30.10,WSW,243,4.0,7.0,56,0.00,,,0.03,Wunderground v.1.15,2018-01-19 23:38:00,
2018-01-19 18:43:00,38.8,24.4,30.10,SSW,199,2.0,8.0,56,0.00,,,0.03,Wunderground v.1.15,2018-01-19 23:43:00,
2018-01-19 18:48:00,38.6,24.7,30.10,SSW,200,1.0,8.0,57,0.00,,,0.03,Wunderground v.1.15,2018-01-19 23:48:00,
2018-01-19 18:53:00,38.4,24.5,30.10,SSW,202,1.0,6.0,57,0.00,,,0.03,Wunderground v.1.15,2018-01-19 23:53:00,
2018-01-19 18:58:00,38.2,24.7,30.10,SW,215,2.0,6.0,58,0.00,,,0.03,Wunderground v.1.15,2018-01-19 23:58:00,
2018-01-19 19:03:00,37.9,24.4,30.10,SSW,211,2.0,3.0,58,0.00,,,0.03,Wunderground v.1.15,2018-01-20 00:03:00,
2018-01-19 19:08:00,37.8,24.3,30.10,South,178,8.0,12.0,58,0.00,,,0.03,Wunderground v.1.15,2018-01-20 00:08:00,
2018-01-19 19:14:00,37.9,24.4,30.10,SW,236,1.0,6.0,58,0.00,,,0.03,Wunderground v.1.15,2018-01-20 00:14:00,
2018-01-19 19:19:00,38.1,24.6,30.10,SSW,202,2.0,7.0,58,0.00,,,0.03,Wunderground v.1.15,2018-01-20 00:19:00,
2018-01-19 19:24:00,38.0,24.5,30.10,SSE,167,1.0,6.0,58,0.00,,,0.03,Wunderground v.1.15,2018-01-20 00:24:00,
2018-01-19 19:29:00,37.9,24.4,30.10,SSE,163,3.0,8.0,58,0.00,,,0.03,Wunderground v.1.15,2018-01-20 00:29:00,
2018-01-19 19:34:00,38.0,24.5,30.10,SW,215,2.0,7.0,58,0.00,,,0.03,Wunderground v.1.15,2018-01-20 00:34:00,
2018-01-19 19:39:00,37.9,24.4,30.10,South,189,6.0,10.0,58,0.00,,,0.03,Wunderground v.1.15,2018-01-20 00:39:00,
2018-01-19 19:44:00,37.9,24.4,30.10,South,182,5.0,11.0,58,0.00,,,0.03,Wunderground v.1.15,2018-01-20 00:44:00,
2018-01-19 19:49:00,37.9,24.4,30.10,South,188,2.0,11.0,58,0.00,,,0.03,Wunderground v.1.15,2018-01-20 00:49:00,
2018-01-19 19:54:00,37.7,24.6,30.09,SSW,213,3.0,10.0,59,0.00,,,0.03,Wunderground v.1.15,2018-01-20 00:54:00,
2018-01-19 19:59:00,37.5,24.5,30.09,South,190,0.0,10.0,59,0.00,,,0.03,Wunderground v.1.15,2018-01-20 00:59:00,
2018-01-19 20:04:00,37.2,24.6,30.09,SE,140,4.0,5.0,60,0.00,,,0.03,Wunderground v.1.15,2018-01-20 01:04:00,
2018-01-19 20:09:00,37.1,24.5,30.09,South,182,5.0,8.0,60,0.00,,,0.03,Wunderground v.1.15,2018-01-20 01:09:00,
2018-01-19 20:14:00,36.8,24.2,30.09,South,186,5.0,8.0,60,0.00,,,0.03,Wunderground v.1.15,2018-01-20 01:14:00,
2018-01-19 20:19:00,36.6,24.4,30.09,SSE,163,4.0,9.0,61,0.00,,,0.03,Wunderground v.1.15,2018-01-20 01:19:00,
2018-01-19 20:24:00,36.6,24.0,30.10,SSW,206,0.0,8.0,60,0.00,,,0.03,Wunderground v.1.15,2018-01-20 01:24:00,
2018-01-19 20:29:00,36.6,24.0,30.10,South,184,3.0,12.0,60,0.00,,,0.03,Wunderground v.1.15,2018-01-20 01:29:00,
2018-01-19 20:34:00,36.5,24.3,30.10,South,181,14.0,14.0,61,0.00,,,0.03,Wunderground v.1.15,2018-01-20 01:34:00,
2018-01-19 20:39:00,36.6,24.4,30.10,SW,220,3.0,14.0,61,0.00,,,0.03,Wunderground v.1.15,2018-01-20 01:39:00,
2018-01-19 20:44:00,36.6,24.4,30.10,SW,231,5.0,9.0,61,0.00,,,0.03,Wunderground v.1.15,2018-01-20 01:44:00,
2018-01-19 20:49:00,36.7,24.1,30.10,South,175,3.0,4.0,60,0.00,,,0.03,Wunderground v.1.15,2018-01-20 01:49:00,
2018-01-19 20:54:00,36.7,24.5,30.10,South,184,2.0,11.0,61,0.00,,,0.03,Wunderground v.1.15,2018-01-20 01:54:00,
2018-01-19 20:59:00,36.6,24.4,30.10,WSW,242,2.0,11.0,61,0.00,,,0.03,Wunderground v.1.15,2018-01-20 01:59:00,
2018-01-19 21:04:00,36.6,24.4,30.10,SSW,199,6.0,10.0,61,0.00,,,0.03,Wunderground v.1.15,2018-01-20 02:04:00,
2018-01-19 21:09:00,36.7,24.5,30.10,WSW,243,2.0,10.0,61,0.00,,,0.03,Wunderground v.1.15,2018-01-20 02:09:00,
2018-01-19 21:14:00,36.6,24.4,30.10,SSW,192,5.0,10.0,61,0.00,,,0.03,Wunderground v.1.15,2018-01-20 02:14:00,
2018-01-19 21:19:00,36.7,24.1,30.10,SSW,195,3.0,12.0,60,0.00,,,0.03,Wunderground v.1.15,2018-01-20 02:19:00,
2018-01-19 21:24:00,36.7,24.5,30.09,WSW,243,0.0,9.0,61,0.00,,,0.03,Wunderground v.1.15,2018-01-20 02:24:00,
2018-01-19 21:29:00,36.6,24.4,30.09,SE,138,3.0,10.0,61,0.00,,,0.03,Wunderground v.1.15,2018-01-20 02:29:00,
2018-01-19 21:34:00,36.6,24.4,30.09,SSW,205,4.0,9.0,61,0.00,,,0.03,Wunderground v.1.15,2018-01-20 02:34:00,
2018-01-19 21:39:00,36.6,24.4,30.08,SE,134,1.0,9.0,61,0.00,,,0.03,Wunderground v.1.15,2018-01-20 02:39:00,
2018-01-19 21:44:00,36.6,24.4,30.08,WSW,241,3.0,8.0,61,0.00,,,0.03,Wunderground v.1.15,2018-01-20 02:44:00,
2018-01-19 21:50:00,36.6,24.4,30.08,South,175,8.0,8.0,61,0.00,,,0.03,Wunderground v.1.15,2018-01-20 02:50:00,
2018-01-19 21:55:00,36.6,24.4,30.08,SSW,194,4.0,11.0,61,0.00,,,0.03,Wunderground v.1.15,2018-01-20 02:55:00,
2018-01-19 22:00:00,36.6,24.0,30.08,South,187,1.0,5.0,60,0.00,,,0.03,Wunderground v.1.15,2018-01-20 03:00:00,
2018-01-19 22:05:00,36.6,24.0,30.08,SW,227,4.0,11.0,60,0.00,,,0.03,Wunderground v.1.15,2018-01-20 03:05:00,
2018-01-19 22:10:00,36.5,24.3,30.08,SSW,200,4.0,6.0,61,0.00,,,0.03,Wunderground v.1.15,2018-01-20 03:10:00,
2018-01-19 22:15:00,36.5,24.3,30.08,SSE,157,4.0,10.0,61,0.00,,,0.03,Wunderground v.1.15,2018-01-20 03:15:00,
2018-01-19 22:20:00,36.5,24.3,30.08,SW,220,3.0,4.0,61,0.00,,,0.03,Wunderground v.1.15,2018-01-20 03:20:00,
2018-01-19 22:25:00,36.5,24.3,30.08,South,191,3.0,11.0,61,0.00,,,0.03,Wunderground v.1.15,2018-01-20 03:25:00,
2018-01-19 22:30:00,36.4,24.2,30.08,South,184,12.0,12.0,61,0.00,,,0.03,Wunderground v.1.15,2018-01-20 03:30:00,
2018-01-19 22:35:00,36.5,24.3,30.08,SE,143,2.0,12.0,61,0.00,,,0.03,Wunderground v.1.15,2018-01-20 03:35:00,
2018-01-19 22:40:00,36.5,24.3,30.08,South,181,6.0,6.0,61,0.00,,,0.03,Wunderground v.1.15,2018-01-20 03:40:00,
2018-01-19 22:45:00,36.5,24.3,30.08,South,188,5.0,12.0,61,0.00,,,0.03,Wunderground v.1.15,2018-01-20 03:45:00,
2018-01-19 22:50:00,36.5,24.3,30.08,South,171,1.0,4.0,61,0.00,,,0.03,Wunderground v.1.15,2018-01-20 03:50:00,